New Bern, NC

3:16 AM EDT on October 15, 2019 (GMT -0400)
Craven County Regional

Weather History for KEWN - August, 2019

Change the Weather History Date:

Saturday, August 10, 2019

  Actual Average Record
Temperature  
Mean Temperature 81 °F 80 °F  
Max Temperature 91 °F 89 °F 98 °F (1979)
Min Temperature 71 °F 71 °F 61 °F (1950)
Degree Days  
Heating Degree Days 0 0  
Month to date heating degree days 0 0  
Since 1 June heating degree days 0 1  
Since 1 July heating degree days 0 0  
Cooling Degree Days 16 15  
Month to date cooling degree days 158 150  
Year to date cooling degree days 1477 1240  
Since 1 June cooling degree days 1058 997  
Growing Degree Days 31 (Base 50)    
Moisture  
Dew Point 73 °F    
Average Humidity 87    
Maximum Humidity 100    
Minimum Humidity 61    
Precipitation  
Precipitation 0.97 in 0.22 in 4.38 in (1988)
Month to date precipitation 3.38 2.24  
Year to date precipitation 26.32 32.39  
Snow  
Snow 0.00 in - - ()
Month to date snowfall 0.0  
Since 1 July snowfall 0.0  
Snow Depth 0.00 in    
Sea Level Pressure  
Sea Level Pressure 29.90 in    
Wind  
Wind Speed 5 mph ()    
Max Wind Speed 31 mph    
Max Gust Speed 48 mph    
Visibility 7.7 miles    
Events Fog , Rain , Thunderstorm    
T = Trace of Precipitation, MM = Missing Value Source: Averaged Metar Reports

Daily Weather History Graph

Daily Weather History Graph

Search for Another Location

Airport or City:

Astronomy

Aug. 10, 2019 Rise Set
Actual Time 6:24 AM EDT 8:02 PM EDT
Civil Twilight 5:56 AM EDT 8:29 PM EDT
Nautical Twilight 5:24 AM EDT 9:02 PM EDT
Astronomical Twilight 4:49 AM EDT 9:36 PM EDT
Moon 4:38 PM EDT (8/10) 2:02 AM EDT (8/10)
Length of Visible Light 14h 32m
Length of Day
13h 38m
Waxing Gibbous, 79% of the Moon is Illuminated
Aug 10
Waxing Gibbous
Aug 15
Full
Aug 23
Last Quarter
Aug 30
New
Sep 5
First Quarter

Hourly Weather History & Observations

Time (EDT) Temp. Heat Index Dew Point Humidity Pressure Visibility Wind Dir Wind Speed Gust Speed Precip Events Conditions
12:54 AM 79.0 °F - 77.0 °F 94% 29.89 in 10.0 mi WSW 5.8 mph - N/A   Clear
1:54 AM 78.1 °F - 75.0 °F 90% 29.88 in 10.0 mi SW 4.6 mph - N/A   Clear
2:54 AM 75.9 °F - 75.0 °F 97% 29.88 in 10.0 mi SW 3.5 mph - N/A   Clear
3:54 AM 75.0 °F - 73.9 °F 96% 29.88 in 8.0 mi SSW 4.6 mph - N/A   Clear
4:54 AM 75.0 °F - 73.9 °F 96% 29.88 in 7.0 mi Calm Calm - N/A   Clear
5:54 AM 75.0 °F - 73.9 °F 96% 29.89 in 7.0 mi Calm Calm - N/A   Clear
6:54 AM 75.0 °F - 73.9 °F 96% 29.91 in 5.0 mi Calm Calm - N/A   Clear
7:54 AM 78.1 °F - 71.1 °F 79% 29.92 in 10.0 mi NNE 8.1 mph - N/A   Clear
8:54 AM 80.1 °F 83.6 °F 71.1 °F 74% 29.93 in 10.0 mi NNE 6.9 mph - N/A   Clear
9:54 AM 82.0 °F 86.3 °F 71.1 °F 69% 29.94 in 10.0 mi North 6.9 mph - N/A   Clear
10:54 AM 84.9 °F 90.7 °F 72.0 °F 65% 29.95 in 10.0 mi NNE 5.8 mph - N/A   Clear
11:54 AM 88.0 °F 96.5 °F 73.9 °F 63% 29.94 in 10.0 mi Variable 4.6 mph - N/A   Clear
12:54 PM 88.0 °F 96.5 °F 73.9 °F 63% 29.93 in 10.0 mi ENE 5.8 mph - N/A   Clear
1:54 PM 90.0 °F 100.2 °F 75.0 °F 61% 29.91 in 10.0 mi Calm Calm - N/A   Clear
2:54 PM 90.0 °F 101.3 °F 75.9 °F 63% 29.88 in 10.0 mi ESE 8.1 mph - N/A   Clear
3:10 PM 88.0 °F 98.5 °F 75.9 °F 67% 29.86 in 10.0 mi East 9.2 mph - N/A Thunderstorm Clear
3:21 PM 87.1 °F 97.3 °F 75.9 °F 69% 29.85 in 10.0 mi East 11.5 mph - N/A Thunderstorm Thunderstorm
3:34 PM 84.0 °F 91.9 °F 75.0 °F 74% 29.89 in 0.8 mi SW 31.1 mph 48.3 mph 0.20 in Rain , Thunderstorm Thunderstorms and Rain
3:41 PM 72.0 °F - 71.1 °F 97% 29.92 in 0.2 mi WSW 17.3 mph 48.3 mph 0.63 in Fog , Rain , Thunderstorm Heavy Thunderstorms and Rain
3:45 PM 72.0 °F - 69.1 °F 91% 29.88 in 0.2 mi SSE 24.2 mph 38.0 mph 0.82 in Fog , Rain , Thunderstorm Heavy Thunderstorms and Rain
3:52 PM 73.4 °F - 69.8 °F 88% 29.89 in 0.8 mi Variable 3.5 mph 38.0 mph 0.83 in Rain , Thunderstorm Light Thunderstorms and Rain
3:54 PM 73.9 °F - 69.1 °F 85% 29.90 in 1.8 mi Variable 5.8 mph 25.3 mph 0.83 in Rain , Thunderstorm Light Thunderstorms and Rain
4:01 PM 73.0 °F - 70.0 °F 90% 29.88 in 10.0 mi NE 8.1 mph - 0.00 in Rain , Thunderstorm Light Thunderstorms and Rain
4:16 PM 75.0 °F - 72.0 °F 90% 29.90 in 10.0 mi Variable 3.5 mph - 0.00 in Thunderstorm Overcast
4:27 PM 75.0 °F - 72.0 °F 90% 29.91 in 10.0 mi Calm Calm - 0.00 in Rain Light Rain
4:45 PM 77.0 °F - 73.0 °F 88% 29.90 in 10.0 mi Calm Calm - 0.00 in   Mostly Cloudy
4:54 PM 77.0 °F - 73.0 °F 88% 29.92 in 10.0 mi SW 8.1 mph - 0.00 in   Mostly Cloudy
5:52 PM 71.6 °F - 69.8 °F 94% 29.91 in 1.8 mi SW 9.2 mph - 0.11 in Rain Heavy Rain
5:53 PM 71.1 °F - 69.1 °F 93% 29.91 in 1.8 mi SW 9.2 mph - 0.11 in Rain Heavy Rain
6:30 PM 71.1 °F - 70.0 °F 96% 29.90 in 1.0 mi Calm Calm - 0.03 in Rain Heavy Rain
6:36 PM 72.0 °F - 70.0 °F 93% 29.90 in 4.0 mi Calm Calm - 0.03 in Rain Light Rain
6:54 PM 72.0 °F - 70.0 °F 93% 29.90 in 10.0 mi SSE 3.5 mph - 0.03 in   Overcast
7:10 PM 72.0 °F - 71.1 °F 97% 29.90 in 10.0 mi ENE 4.6 mph - 0.00 in   Mostly Cloudy
7:54 PM 73.0 °F - 72.0 °F 96% 29.91 in 10.0 mi Calm Calm - 0.00 in   Scattered Clouds
8:20 PM 73.0 °F - 72.0 °F 96% 29.91 in 10.0 mi NNE 3.5 mph - N/A   Mostly Cloudy
8:54 PM 73.0 °F - 73.0 °F 100% 29.91 in 10.0 mi Calm Calm - N/A   Overcast
9:54 PM 73.9 °F - 73.0 °F 97% 29.93 in 10.0 mi Calm Calm - N/A   Mostly Cloudy
10:54 PM 73.0 °F - 73.0 °F 100% 29.94 in 10.0 mi Calm Calm - N/A   Mostly Cloudy
11:54 PM 73.0 °F - 73.0 °F 100% 29.95 in 10.0 mi Calm Calm - N/A   Scattered Clouds